SCP
0 0 0 0 0 0 0 0 0 0 0 1 1 0 0 1 1 2 2 2 2 3 4 4 3 2 1 1 1 1 0 0 0 0 1 1 1 1 1 1 1 1 1 1
0 0 0 0 0 0 0 0 0 0 0 1 1 0 1 1 1 2 2 2 2 2 3 3 3 2 1 1 1 1 0 0 0 0 1 1 1 1 1 1 1 1 1 1
0 0 0 0 0 0 0 0 0 0 0 0 1 1 1 1 1 2 2 1 1 2 2 3 2 2 2 1 1 1 0 0 0 1 1 1 1 1 1 1 1 1 1 1
0 0 0 0 0 0 0 0 0 0 0 0 1 1 1 1 1 1 1 1 1 1 2 2 2 2 2 1 1 1 1 1 1 1 1 1 1 1 2 2 2 1 1 1
0 0 0 0 1 1 1 1 1 1 1 1 0 0 1 1 1 1 1 1 1 1 1 1 1 2 2 1 1 1 1 1 1 1 1 1 2 2 2 3 2 2 1 1
0 0 1 1 1 1 1 1 1 1 1 1 1 0 0 1 1 1 1 1 1 1 1 2 2 2 2 2 2 1 1 2 2 2 2 2 2 2 3 2 2 2 1 1
1 1 1 2 2 2 2 2 2 1 1 1 1 1 1 1 2 2 2 2 2 2 2 2 3 3 3 3 3 2 2 2 2 2 2 2 3 3 3 3 2 2 1 1
1 1 1 2 2 2 2 2 2 1 1 2 2 2 2 3 3 3 3 3 3 4 4 4 4 4 4 4 4 4 4 3 3 4 3 3 3 3 3 3 2 2 1 1
2 2 2 2 2 1 2 2 2 1 1 2 2 2 3 3 4 4 3 3 4 4 4 5 5 5 5 5 5 5 4 4 5 5 4 3 3 3 2 2 2 2 1 1
2 2 2 1 1 1 1 1 1 2 2 2 2 2 3 3 4 4 4 4 5 5 5 5 6 6 6 6 5 5 4 4 4 4 4 3 3 2 2 2 2 2 2 1
2 2 2 1 1 1 1 1 1 1 2 2 2 2 3 4 4 4 5 5 5 6 6 6 7 7 7 7 6 4 4 3 3 2 3 3 2 2 2 2 2 2 1 1
2 2 2 1 1 1 1 1 1 1 1 1 2 2 3 4 4 4 5 5 5 6 6 7 7 8 7 7 6 4 3 3 2 2 2 2 2 2 2 1 1 1 0 0
2 1 1 1 1 1 1 1 1 1 1 1 1 2 2 3 3 4 4 4 4 5 5 6 6 7 7 7 5 4 3 3 2 2 1 1 1 2 2 1 1 0 0 0
1 1 1 1 1 1 1 1 1 1 1 1 1 1 1 2 3 3 3 3 3 3 3 4 4 5 6 6 4 4 3 3 2 2 2 1 1 2 2 2 1 1 1 0
1 1 1 1 1 0 0 0 1 1 1 1 0 1 1 1 1 2 2 2 2 2 2 2 3 3 4 4 4 4 3 3 2 2 2 1 1 1 1 2 2 1 1 1
1 1 1 0 0 0 0 0 0 0 0 0 0 0 0 0 1 1 1 1 1 1 2 2 2 2 2 3 3 4 3 2 1 1 1 1 1 1 1 1 2 1 1 1
0 0 0 0 0 0 0 0 0 0 0 0 0 0 0 0 0 1 1 1 1 1 1 1 1 1 2 2 2 3 2 2 1 1 1 1 1 1 1 1 1 1 1 1
0 0 0 0 0 0 0 0 0 0 0 0 0 0 0 0 0 1 0 0 1 1 1 1 1 1 1 1 2 2 1 1 1 1 1 1 1 1 1 1 1 1 1 1
0 0 0 0 0 0 0 0 0 0 0 0 0 0 0 0 0 0 0 0 0 0 0 0 0 0 1 1 1 1 1 1 1 1 1 1 1 1 1 1 1 1 1 2
0 0 0 0 0 0 0 0 0 0 0 0 0 0 0 0 0 0 0 0 0 0 0 0 0 0 0 0 0 0 0 0 0 0 1 1 1 1 1 1 1 1 1 1
0 0 0 0 0 0 0 0 0 0 0 0 0 0 0 0 0 0 0 0 0 0 0 0 0 0 0 0 0 0 0 0 0 0 0 0 0 1 1 1 1 1 1 1
0 0 0 0 0 0 0 0 0 0 0 0 0 0 0 0 0 0 0 0 0 0 0 0 0 0 0 0 0 0 0 0 0 0 0 0 0 0 0 1 1 1 0 1
0 0 0 0 0 0 0 0 0 0 0 0 0 0 0 0 0 0 0 0 0 0 0 0 0 0 0 0 0 0 0 0 0 0 0 0 0 0 0 1 1 1 0 0
0 0 0 0 0 0 0 0 0 0 0 0 0 0 0 0 0 0 0 0 0 0 0 0 0 0 0 0 0 0 0 0 0 0 0 0 0 0 0 1 1 1 0 0
0 0 0 0 0 0 0 0 0 0 0 0 0 0 0 0 0 0 0 0 0 0 0 0 0 0 0 0 1 1 0 0 0 0 0 0 0 0 0 1 1 1 1 0
0 0 0 0 0 0 0 0 0 0 0 0 0 0 0 0 0 1 0 0 0 0 1 1 1 1 0 1 1 0 0 0 0 0 0 0 0 0 0 1 1 1 0 0
0 0 0 0 0 0 0 0 0 0 0 0 0 0 0 0 0 1 0 0 0 0 1 1 1 1 1 1 1 0 0 0 0 0 0 0 0 0 0 0 0 0 0 0
Wind_Speed
9 8 10 11 13 11 9 8 8 6 6 5 4 3 4 5 6 7 9 9 9 9 9 8 7 6 5 5 4 3 2 3 3 3 3 3 4 4 4 5 6 5 5 6
13 13 11 13 13 11 10 9 9 7 4 3 6 5 4 4 5 6 8 9 10 10 9 9 8 7 6 5 5 5 4 4 3 3 3 4 4 5 5 5 5 5 5 6
13 14 12 12 11 10 8 7 7 5 1 4 4 4 4 4 4 5 7 8 9 10 9 8 8 7 6 6 5 5 5 5 4 4 4 4 5 5 4 5 5 5 6 6
12 13 15 9 7 8 7 6 5 3 3 3 4 4 5 6 6 5 6 7 8 9 10 10 9 8 7 7 7 6 6 6 5 5 5 4 4 5 5 4 5 5 6 7
11 13 13 8 5 6 7 5 4 1 3 2 4 2 5 9 9 7 6 6 6 8 10 10 10 10 9 7 7 7 7 6 5 4 4 4 4 5 5 4 5 6 7 7
11 13 12 4 4 4 4 3 8 6 4 2 2 1 2 7 8 7 6 6 7 8 8 9 9 9 9 8 7 7 6 5 4 4 4 5 5 5 5 5 6 7 7 6
12 11 5 5 3 4 1 2 8 7 5 4 3 2 3 4 5 6 6 7 7 7 7 8 8 8 8 7 7 6 5 4 4 4 5 6 6 6 5 6 7 7 8 8
7 6 3 10 8 6 3 6 9 9 9 7 6 4 2 1 4 5 5 6 7 6 6 7 8 8 8 7 6 5 4 4 5 4 6 6 5 5 6 6 8 8 8 9
0 3 5 7 5 2 2 4 7 9 9 8 8 7 6 4 3 2 3 4 5 5 5 6 6 7 7 6 4 4 4 5 4 5 5 6 6 7 7 7 8 7 6 6
4 7 6 6 6 3 3 5 8 10 11 11 10 10 9 7 5 3 2 1 3 5 5 5 5 5 5 4 4 4 5 5 5 6 7 7 7 8 8 7 6 5 5 5
5 7 7 6 6 7 8 9 10 12 13 13 13 13 12 10 9 6 5 4 2 2 3 4 5 5 5 4 4 4 5 5 6 8 8 8 8 8 9 8 7 7 6 5
4 5 5 5 6 8 10 11 12 12 13 14 14 13 13 11 10 9 7 6 5 3 1 1 3 4 4 3 4 4 5 6 7 7 7 7 7 7 12 13 13 14 14 11
7 7 9 8 9 9 9 11 12 12 13 13 13 13 13 11 10 10 9 9 7 5 3 2 1 2 3 3 4 5 6 7 6 7 8 8 7 6 6 7 12 14 15 15
7 7 8 9 9 10 11 12 12 13 13 12 12 12 11 11 10 10 10 9 8 8 6 5 4 3 2 2 4 6 7 8 8 8 8 8 8 8 7 7 6 6 9 15
7 8 9 9 10 11 11 11 11 11 11 11 11 11 11 10 10 9 9 9 9 8 8 7 6 5 4 5 5 7 8 8 8 9 8 9 8 8 8 8 6 6 5 5
9 10 9 9 9 9 10 10 10 10 10 10 10 9 9 9 9 9 9 10 9 9 8 7 7 7 7 8 8 8 8 12 12 10 10 9 9 9 8 7 6 5 5 5
8 8 7 7 7 8 8 9 9 9 10 10 10 10 9 9 8 8 9 10 9 8 7 6 7 9 9 9 10 9 10 11 12 11 10 10 9 9 8 7 6 5 5 4
9 8 7 6 6 6 7 8 8 9 9 10 10 10 9 9 8 8 9 10 10 8 7 7 8 10 10 10 9 9 10 11 11 11 9 8 8 7 7 7 7 7 5 4
6 4 3 3 4 6 7 8 9 9 9 9 10 10 9 9 8 8 9 10 10 8 6 7 10 11 11 9 10 9 11 12 12 11 9 9 9 8 8 8 7 5 4 4
3 3 4 6 7 8 8 9 10 10 9 10 10 10 10 9 9 9 9 9 7 6 6 8 10 10 9 8 11 12 13 14 13 12 10 9 9 8 7 6 5 4 4 4
3 5 7 8 9 10 10 10 10 11 11 10 10 10 10 9 10 9 9 10 6 4 7 9 8 7 8 10 13 13 13 13 13 12 10 9 9 8 7 5 4 4 3 4
6 7 9 10 10 11 10 10 11 12 12 11 11 11 10 10 11 9 8 7 8 4 5 8 9 8 9 12 13 13 13 12 12 11 10 8 8 8 7 5 3 3 3 3
7 8 9 10 11 11 12 12 13 12 11 11 12 11 11 9 9 10 10 7 7 5 7 9 8 8 10 11 11 12 12 12 11 10 9 9 8 7 6 5 3 2 2 2
8 9 10 11 12 12 13 13 12 10 12 12 12 11 10 9 8 8 8 8 7 7 9 7 7 9 10 9 10 9 9 10 10 10 9 9 8 7 5 3 2 2 3 4
10 10 11 11 11 11 11 11 12 11 11 9 11 10 9 8 8 9 9 11 11 10 10 8 7 7 9 9 8 8 8 8 9 9 9 9 8 6 5 4 3 3 3 2
9 9 9 9 10 9 10 10 9 9 9 10 10 10 10 9 10 9 8 11 14 10 9 8 7 7 8 8 8 8 8 8 9 8 9 8 7 6 4 3 4 4 4 3
10 9 7 8 8 9 9 9 10 10 10 10 11 11 11 11 10 10 11 10 10 9 8 7 7 8 8 7 7 7 7 7 7 7 7 7 6 6 6 6 4 4 3 4
Wind_Direction
285 257 233 245 254 260 261 268 272 266 255 224 172 158 152 159 162 160 157 160 159 158 158 160 162 164 179 187 179 181 196 226 229 227 236 247 255 260 265 269 277 281 287 287
291 282 277 275 276 272 269 269 268 264 267 120 127 132 137 147 161 162 165 171 168 165 163 166 171 176 183 183 177 175 199 231 237 234 247 252 256 255 259 263 271 277 280 284
284 291 292 281 277 274 269 269 272 267 187 134 137 134 141 151 170 176 176 178 173 170 169 168 174 175 178 179 181 186 197 221 233 233 245 253 266 274 276 279 281 280 279 279
274 278 274 281 291 289 267 245 248 231 163 150 140 143 157 163 173 182 186 182 172 171 168 170 172 173 178 187 187 194 203 216 224 230 244 251 257 264 267 273 276 277 277 278
274 275 272 278 320 337 325 321 341 243 138 120 117 190 190 166 168 178 184 168 163 173 176 172 172 174 176 193 195 201 210 213 222 230 244 254 261 264 268 270 272 273 275 272
258 268 279 325 20 352 329 334 1 15 33 28 142 281 81 144 164 174 173 159 164 177 171 164 171 172 176 192 202 210 215 214 220 225 239 252 259 261 265 266 269 273 274 273
258 269 286 19 46 39 358 32 340 353 16 359 18 29 121 172 162 156 160 162 166 174 169 168 168 167 180 197 206 209 212 212 218 224 233 242 245 245 250 258 267 271 274 272
258 275 310 9 23 52 16 346 335 357 3 2 356 341 344 93 121 145 161 173 175 173 169 164 166 171 187 203 206 205 210 220 227 229 247 258 250 251 251 256 264 265 264 265
140 117 108 74 69 40 360 359 350 0 352 353 351 360 12 40 72 118 158 169 169 168 165 162 168 177 195 200 198 208 218 228 237 243 245 253 258 260 256 251 255 261 268 275
73 100 110 114 126 124 59 31 22 16 14 11 13 15 19 30 40 48 47 141 157 158 168 172 174 183 191 186 190 208 224 233 241 246 247 245 242 251 257 259 260 263 272 281
90 106 107 76 65 71 60 48 40 35 29 26 26 24 25 28 25 29 36 30 52 133 171 178 175 181 184 184 196 217 230 239 248 253 253 250 245 243 247 249 251 254 263 269
90 100 98 87 61 60 62 57 49 42 39 36 32 27 28 28 27 24 24 25 26 22 1 216 182 182 184 187 201 227 242 247 254 258 258 258 255 254 241 237 242 232 232 241
77 83 92 84 60 50 57 60 59 53 46 41 35 31 30 28 28 26 24 22 15 5 1 1 325 209 195 200 216 236 254 262 268 271 273 274 272 270 272 255 239 236 235 237
79 80 81 71 64 47 45 51 54 51 45 40 34 30 27 24 24 23 21 15 11 4 359 351 333 313 293 260 250 254 262 266 267 269 267 268 270 270 269 271 267 255 236 231
81 87 87 74 64 54 44 44 44 40 35 31 28 23 20 17 15 15 13 9 4 358 356 350 340 334 336 313 293 284 280 277 273 273 273 273 271 270 268 267 265 268 272 239
95 88 84 74 59 48 42 36 32 26 23 20 17 13 10 8 6 7 5 3 356 349 345 341 341 347 340 323 306 291 278 273 274 277 276 273 270 270 271 269 268 268 270 275
103 90 76 64 52 38 29 24 18 11 6 3 356 355 355 357 355 359 356 352 344 336 334 343 356 348 334 319 309 301 297 291 279 271 269 269 266 266 269 269 268 266 266 261
80 74 63 45 28 16 9 5 0 357 353 346 343 345 345 344 345 347 343 340 330 325 340 359 1 341 323 319 318 312 305 299 295 291 283 276 271 268 268 269 272 276 280 262
89 76 49 20 4 357 352 346 342 342 340 337 334 334 331 330 333 333 332 326 316 317 346 352 345 326 317 335 336 316 306 301 297 293 289 288 282 274 268 266 266 265 267 277
57 19 355 344 344 343 337 336 335 332 329 327 323 321 319 321 323 321 317 306 308 325 331 333 323 311 319 348 341 320 309 302 299 295 290 288 289 284 273 266 265 264 268 268
346 340 338 336 335 332 330 329 325 319 317 315 313 311 312 313 311 307 300 301 309 318 313 307 300 315 335 335 319 311 307 305 302 299 294 292 291 287 284 280 267 259 267 267
337 333 331 328 326 323 323 319 313 309 309 308 308 309 309 305 300 297 291 291 298 308 304 306 314 335 332 318 311 308 306 306 306 303 302 301 296 290 286 287 280 281 282 277
324 322 319 318 316 313 312 309 305 305 307 308 305 300 295 292 292 292 292 295 305 313 305 308 317 315 308 306 306 308 312 314 312 309 310 308 301 297 298 295 282 282 289 295
311 310 311 310 309 306 302 302 305 304 298 293 288 285 285 286 288 292 302 312 313 306 304 306 297 299 296 300 309 317 320 321 319 319 320 316 310 311 317 322 328 338 322 304
303 304 302 303 302 302 307 306 303 297 296 301 306 310 308 309 312 316 317 315 316 312 311 313 308 300 300 308 315 321 323 325 327 323 316 314 317 325 330 337 351 348 338 338
297 294 299 299 296 294 295 299 305 313 317 317 317 319 321 319 315 314 312 315 319 319 314 317 325 319 322 324 327 327 327 326 324 324 327 326 331 333 339 355 3 2 5 8
299 297 295 297 308 314 319 320 318 319 319 319 320 322 317 313 313 316 317 316 316 319 324 328 330 329 327 328 329 331 332 330 332 336 339 342 347 353 355 2 7 7 11 17